Probability
0 3 7 8 7 7 9 7 7 7 8 8 8 7 6 4 2 0 1 2 2 2 3 3 3 3 3 3 3 1 0 0 0 0 0 0 0 0 0 0 0 0 0
1 3 6 7 6 7 7 7 7 9 9 8 7 7 5 4 2 1 0 1 1 1 3 3 3 3 3 3 3 2 1 0 0 0 0 0 0 0 0 0 0 0 0
2 3 5 6 6 5 6 7 8 10 10 8 7 6 4 4 3 2 1 0 0 1 2 2 2 3 3 3 3 2 1 0 0 0 0 0 0 0 0 0 0 0 0
3 3 5 7 7 5 6 7 9 10 10 9 7 5 3 4 4 5 4 1 0 0 1 1 1 2 3 3 3 3 1 0 0 0 0 0 0 0 0 0 0 0 0
5 5 7 9 9 7 6 7 8 9 9 9 8 5 3 3 4 5 5 2 1 0 0 0 1 2 3 3 3 3 2 1 0 0 0 0 0 0 0 0 0 0 0
5 6 9 11 11 8 6 6 7 7 9 9 9 7 5 4 4 4 4 3 2 1 0 1 2 3 4 4 3 3 2 1 0 0 0 0 0 0 0 0 0 0 0
4 5 8 11 10 9 7 6 5 6 7 8 9 8 6 4 3 3 3 3 3 2 2 1 2 4 5 5 4 3 2 1 0 0 0 0 0 0 0 0 0 0 0
4 5 6 8 8 9 9 8 6 6 7 7 8 8 7 4 2 1 1 2 2 3 3 2 2 4 6 6 4 3 2 1 0 0 0 0 0 0 0 0 0 0 0
4 4 5 6 7 7 8 8 8 7 6 6 6 7 5 2 1 0 0 1 2 3 3 3 3 4 5 5 4 3 1 0 0 0 0 0 0 0 0 0 0 0 0
5 4 4 4 4 4 4 5 5 5 4 4 5 5 3 1 0 0 0 1 2 4 4 3 2 3 4 4 3 2 1 0 0 0 0 0 0 0 0 0 0 0 0
6 5 4 2 2 1 1 1 1 1 2 3 3 2 1 0 0 0 0 1 3 4 5 4 3 2 2 3 2 1 0 0 0 0 0 0 0 0 0 0 0 0 0
7 5 3 1 0 0 0 0 0 0 1 2 2 1 0 0 0 0 0 1 2 2 3 3 2 1 1 2 1 0 0 0 0 0 0 0 0 0 0 0 0 0 0
6 4 2 0 0 0 0 0 0 0 0 1 1 0 0 0 0 0 0 0 0 0 1 1 1 1 1 0 0 0 0 0 0 0 0 0 0 0 1 1 0 0 0
3 3 2 1 1 0 0 0 0 0 0 0 0 0 0 0 0 0 0 0 0 0 0 0 0 0 0 0 0 0 0 0 0 0 0 0 0 1 2 1 0 0 0
1 1 1 2 2 1 0 0 0 0 0 0 0 0 0 0 0 0 0 0 0 0 0 0 0 0 0 0 0 0 0 0 0 0 0 0 0 1 1 1 0 0 0
0 0 1 2 3 2 1 0 0 0 0 0 0 0 0 0 0 0 0 0 0 0 0 0 1 0 0 0 0 0 0 0 0 0 0 0 0 0 0 0 0 0 0
0 0 1 2 3 2 1 0 0 0 0 1 0 0 0 0 0 0 0 0 0 0 0 0 0 0 0 0 0 0 0 0 0 0 0 0 0 0 0 0 0 0 0
0 0 0 1 1 1 1 0 0 0 0 0 0 0 0 0 0 0 0 0 0 0 0 0 0 0 0 0 0 0 0 0 0 0 0 0 0 0 0 0 0 0 0
0 0 0 0 0 0 0 0 0 0 0 0 0 0 0 0 0 0 0 0 0 0 0 0 0 0 0 0 0 0 0 0 0 0 0 0 0 0 0 0 0 0 0
0 0 0 0 0 0 0 0 0 0 0 0 0 0 0 0 0 0 0 0 0 0 0 0 0 0 0 0 0 0 0 0 0 0 0 0 0 0 0 0 0 0 0
0 0 0 0 0 0 0 0 0 0 0 0 0 0 0 0 0 0 0 0 0 0 0 0 0 0 0 0 0 0 0 0 0 0 0 0 0 0 0 0 0 0 0
0 0 0 0 0 0 0 0 0 0 0 0 0 0 0 0 0 0 0 0 0 0 0 0 0 0 0 0 0 0 0 0 0 0 0 0 0 0 0 0 0 0 0
0 0 0 0 0 0 0 0 0 0 0 0 0 0 0 0 0 0 0 0 0 0 0 0 0 0 0 0 0 0 0 0 0 0 0 0 0 0 0 0 0 0 0
0 0 0 0 0 0 0 0 0 0 0 0 0 0 0 0 0 0 0 0 0 0 0 0 0 0 0 0 0 0 0 0 0 0 0 0 0 0 0 0 0 0 0
0 0 0 0 0 0 0 0 0 0 0 0 0 0 0 0 0 0 0 0 0 0 0 0 0 0 0 0 0 0 0 0 0 0 0 0 0 0 0 0 0 0 0
0 0 0 0 0 0 0 0 0 0 0 0 0 0 0 0 0 0 0 0 0 0 0 0 0 0 0 0 0 0 0 0 0 0 0 0 0 0 0 0 0 0 0
Wind_Speed
1 1 0 3 5 6 7 8 8 9 9 9 9 10 10 10 10 10 10 10 10 10 11 11 12 12 12 12 12 12 13 13 13 13 12 12 12 12 13 12 11 7 12
1 1 2 3 5 6 7 7 8 8 9 9 9 9 9 9 10 10 9 9 9 10 10 10 11 11 12 12 12 12 12 12 12 12 12 10 11 12 12 11 10 7 11
2 2 3 4 5 6 7 7 7 8 8 8 8 8 8 9 9 9 9 9 9 9 10 10 10 11 11 11 12 12 12 12 12 11 10 5 6 11 11 11 11 11 11
3 2 3 5 6 6 7 6 7 7 7 7 7 7 8 8 8 9 9 8 9 9 9 10 10 11 11 11 11 11 12 11 11 11 6 4 4 9 10 10 10 10 10
3 2 3 6 6 6 6 6 6 6 6 6 7 7 7 8 8 8 8 8 8 9 9 9 10 10 10 10 11 11 11 11 11 9 5 4 4 8 10 10 10 10 9
3 3 3 6 6 6 6 7 6 6 5 5 6 6 7 7 7 8 8 8 8 8 9 9 9 9 9 10 10 10 10 10 9 5 5 4 3 7 9 9 9 9 9
3 3 3 6 6 5 5 6 5 5 5 5 5 5 6 7 7 7 7 7 7 7 8 8 8 8 8 9 9 9 9 9 6 4 4 3 3 7 7 7 7 7 7
3 3 4 5 5 5 5 5 4 4 5 5 5 6 6 7 7 7 7 7 7 7 7 8 8 7 8 8 8 8 8 8 6 4 3 3 4 6 6 6 6 7 7
4 4 4 3 4 4 5 4 4 5 5 5 5 5 6 6 7 7 6 6 6 6 7 7 7 7 7 8 8 8 7 7 4 2 3 2 3 5 6 5 6 6 6
4 4 4 4 4 3 3 4 4 5 5 5 4 5 6 6 6 6 5 5 6 6 6 6 6 6 7 7 7 7 7 6 3 2 2 2 3 4 5 5 5 5 5
3 3 3 3 3 3 3 3 4 4 4 4 3 5 5 3 3 3 4 5 5 5 6 7 7 7 7 6 6 7 6 2 2 2 2 3 3 3 3 4 4 4 4
0 1 2 2 2 2 2 2 2 2 3 2 2 2 2 2 2 3 4 5 5 5 5 6 7 7 5 3 4 5 2 2 2 1 2 4 3 2 2 3 3 2 2
1 0 1 1 1 1 1 1 1 1 2 2 2 2 2 2 2 2 1 3 3 4 3 4 4 3 2 2 2 2 1 1 1 1 2 4 4 3 3 2 2 2 2
0 1 1 0 1 1 1 1 1 1 1 1 1 1 2 1 2 1 1 2 2 2 2 2 2 2 2 2 2 2 1 1 1 1 2 4 4 4 3 3 2 2 3
1 1 1 0 0 0 1 1 1 1 1 0 1 1 1 1 2 2 1 2 2 2 2 2 2 2 2 2 1 1 1 1 1 1 2 4 5 5 4 3 2 2 2
2 2 1 1 1 1 1 1 1 0 0 0 0 1 0 1 2 2 1 2 2 1 1 1 2 2 1 1 1 1 1 1 1 1 1 3 4 5 5 4 3 3 3
2 1 1 1 1 1 1 1 1 1 1 0 0 1 0 1 1 2 2 2 1 2 2 2 2 2 1 1 1 1 1 1 1 1 1 1 2 4 6 5 4 3 3
1 1 1 1 1 1 1 1 1 1 1 1 0 0 0 0 1 2 2 1 2 2 2 2 2 1 1 1 1 1 1 1 1 1 1 1 1 2 4 6 5 4 4
1 1 1 1 1 1 1 1 1 1 1 1 1 0 0 0 1 2 2 1 2 2 2 2 1 1 1 1 1 1 1 1 1 1 1 1 2 2 2 4 6 6 5
0 0 0 0 1 1 0 0 1 1 1 1 1 1 1 0 1 1 1 1 2 2 2 1 2 1 1 1 1 1 1 1 1 1 1 1 1 2 2 2 3 5 6
1 1 0 0 1 1 0 1 1 1 0 0 1 2 2 1 1 2 1 2 2 2 2 2 2 2 1 1 1 1 2 1 1 1 1 1 1 2 2 2 2 2 3
0 1 0 0 0 1 0 1 1 1 0 1 1 2 2 2 1 1 2 1 1 2 2 2 2 2 1 1 1 1 1 2 2 2 1 1 1 1 2 2 2 2 3
1 2 2 1 0 0 1 2 2 2 2 1 1 1 2 2 2 1 2 2 1 1 2 2 2 2 2 1 1 2 2 2 2 2 2 1 1 1 2 2 2 3 3
3 2 1 1 1 1 2 2 2 2 1 0 0 1 1 2 2 2 1 2 1 1 1 1 1 1 2 2 1 0 1 2 1 2 2 1 1 2 2 2 2 2 3
1 1 0 0 1 1 2 2 2 1 1 1 1 1 1 1 1 2 1 1 1 1 1 1 1 1 1 2 1 1 0 0 1 1 3 3 2 2 2 2 2 2 2
1 1 1 1 1 1 1 2 2 2 1 2 1 0 1 1 1 1 1 0 1 1 1 1 1 1 1 1 1 1 1 1 2 2 3 3 3 3 2 2 2 2 2
Wind_Direction
274 283 160 108 110 106 109 109 104 98 96 95 92 89 90 94 94 93 91 88 87 87 85 84 83 79 76 76 77 75 72 69 67 66 66 66 68 69 69 67 63 63 68
172 179 123 111 113 107 109 112 108 103 99 96 94 91 90 93 95 94 92 90 89 88 85 85 86 82 79 78 78 77 74 71 67 64 61 59 64 68 69 68 65 66 69
114 113 116 104 107 106 109 114 111 108 103 99 97 95 94 94 95 97 95 92 88 87 87 88 88 85 82 81 81 79 75 72 69 64 57 44 59 69 69 69 68 67 68
112 102 102 98 97 100 102 111 113 111 107 103 99 98 98 97 96 97 97 94 91 89 90 90 90 87 85 84 82 79 76 72 67 61 47 37 47 68 70 69 67 67 66
88 84 102 94 97 100 99 102 106 111 111 108 104 101 99 100 98 96 95 93 92 92 92 93 92 90 87 86 84 80 76 71 64 53 41 38 45 67 68 69 67 65 63
69 62 93 93 97 100 100 99 104 108 112 112 109 107 104 104 103 100 96 93 92 93 94 94 94 93 91 89 85 80 75 69 60 44 37 35 38 67 66 67 67 64 61
71 48 71 85 89 96 98 101 101 106 109 106 104 103 105 105 103 103 100 95 94 94 94 95 95 95 94 92 88 82 76 69 62 47 34 29 45 66 66 67 66 65 62
83 60 54 65 74 80 88 93 93 95 98 103 104 104 101 97 97 99 100 98 94 95 97 98 97 96 96 93 89 83 74 70 63 46 33 27 49 63 65 67 65 64 62
68 63 51 50 53 59 63 71 74 76 78 87 101 101 95 91 88 85 89 95 98 100 102 102 101 100 99 94 87 79 71 64 57 37 28 17 43 59 63 62 58 62 60
61 59 54 46 44 39 41 54 60 65 71 75 86 94 93 89 85 81 77 85 98 105 105 105 104 103 97 92 85 77 69 60 47 33 16 15 34 51 58 58 55 59 59
46 41 48 52 47 40 41 48 52 59 69 70 78 93 93 87 83 80 77 77 87 97 105 104 100 95 87 82 80 76 67 52 47 27 5 15 21 38 51 55 55 58 63
38 27 40 51 52 44 45 41 39 42 53 54 61 79 82 87 81 80 82 76 76 85 96 103 96 85 75 66 63 63 55 53 50 18 4 12 11 18 35 43 40 41 56
211 360 21 33 49 67 58 48 33 41 43 39 53 77 87 83 79 66 72 72 73 78 76 87 83 72 73 72 74 68 60 50 30 356 352 5 4 3 18 30 31 31 45
170 267 318 13 35 64 76 74 61 55 50 31 11 61 113 115 105 95 80 78 68 68 75 74 86 84 79 74 84 90 76 56 19 354 340 3 2 355 6 19 30 35 32
219 262 279 262 127 114 111 102 80 53 43 28 27 23 105 127 135 126 113 96 84 80 89 82 86 96 87 73 59 68 57 44 24 4 338 355 358 352 351 350 357 13 12
236 244 265 258 241 199 165 157 129 107 9 27 30 359 102 138 140 134 128 119 103 103 108 111 116 110 93 80 57 42 27 33 21 4 346 346 349 350 347 346 358 7 356
244 247 248 243 252 215 205 182 144 146 120 86 12 358 14 138 155 155 155 143 130 121 111 102 94 94 93 77 55 29 22 24 8 359 359 358 348 351 353 355 356 351 345
268 270 260 246 240 228 210 204 169 148 135 137 98 57 22 113 152 152 158 160 144 132 128 128 118 92 84 72 41 11 5 15 10 9 16 8 10 360 354 358 355 351 337
224 238 255 285 263 248 219 178 152 137 126 128 101 73 357 133 145 153 161 164 148 142 139 142 131 126 106 61 30 16 5 356 342 11 17 6 11 11 359 352 352 347 339
289 25 356 357 341 311 226 126 107 98 99 94 92 39 33 87 127 147 154 139 140 140 135 135 131 110 126 106 53 15 348 331 359 351 338 345 7 5 358 350 343 338 338
25 35 40 52 3 48 79 193 188 194 178 89 68 35 34 50 103 120 106 136 142 152 160 152 136 120 108 84 65 358 346 347 8 332 335 338 345 346 348 341 341 338 331
263 293 275 222 180 181 179 198 191 180 126 80 51 42 33 46 68 118 114 126 143 150 145 151 145 144 146 124 123 80 345 336 340 316 314 290 306 334 333 331 339 337 332
245 240 237 235 147 58 64 75 58 58 53 46 30 23 7 34 50 82 124 123 115 138 160 163 165 167 180 185 160 156 162 240 311 317 307 301 310 321 307 329 335 330 326
242 250 245 194 112 95 114 125 124 136 133 152 333 353 0 35 41 39 98 115 136 148 165 184 170 185 172 183 183 200 192 178 198 303 313 309 320 318 314 322 323 318 315
249 255 262 76 85 94 125 152 159 153 132 85 57 37 16 16 35 27 66 125 141 147 184 200 184 189 177 186 178 168 199 274 217 216 278 307 327 322 313 305 301 306 312
352 5 29 99 76 92 136 146 147 139 113 79 50 43 8 347 1 11 17 138 168 177 193 208 193 193 205 205 196 174 181 200 213 215 248 282 300 309 313 295 291 297 306